Location: Gallinara
(44.0333°N, 8.2333°E)
Time: 17:08:18
(UTC+00:00)

Cosmos 1844 Rocket - Pass Details

Date: 25 September 2020
Orbit: 823 x 846 km, 71.0° (Epoch: 29 October)

Event Time Altitude Azimuth Distance (km) Brightness Sun altitude
Rises 04:29:31 0° 328° (NNW) 3,398 5.6 -9.5°
Reaches altitude 10° 04:32:05 10° 321° (NW) 2,463 4.8 -9.1°
Maximum altitude 04:37:17 39° 254° (WSW) 1,237 3.1 -8.1°
Drops below altitude 10° 04:42:29 10° 187° (S) 2,457 5.0 -7.2°
Sets 04:45:04 0° 179° (S) 3,389 5.8 -6.8°
